Willmar, MN

1:30 AM CDT on May 27, 2017 (GMT -0500)
Willmar

Weather History for KBDH - May, 2014

Change the Weather History Date:

Sunday, May 11, 2014

  Actual Average (KBBB) Record (KBBB)
Temperature  
Mean Temperature 54 °F -  
Max Temperature 62 °F 68 °F 88 °F (1991)
Min Temperature 46 °F 46 °F 28 °F (2008)
Degree Days  
Heating Degree Days 11    
Growing Degree Days 4 (Base 50)    
Moisture  
Dew Point 50 °F    
Average Humidity 82    
Maximum Humidity 93    
Minimum Humidity 68    
Precipitation  
Precipitation 0.00 in - - ()
Sea Level Pressure  
Sea Level Pressure 29.85 in    
Wind  
Wind Speed 7 mph (North)    
Max Wind Speed 23 mph    
Max Gust Speed 29 mph    
Visibility 9 miles    
Events Rain , Thunderstorm    
Averages and records for this station are not official NWS values.
T = Trace of Precipitation, MM = Missing Value Source: NWS Daily Summary

Daily Weather History Graph

Daily Weather History Graph

Search for Another Location

Airport or City:

Trip Planner

Search our weather history database for the weather conditions in past years. The results will help you decide how hot, cold, wet, or windy it might be!

Date:

Astronomy

May. 11, 2014 Rise Set
Actual Time 5:55 AM CDT 8:38 PM CDT
Civil Twilight 5:22 AM CDT 9:12 PM CDT
Nautical Twilight 4:39 AM CDT 9:55 PM CDT
Astronomical Twilight 3:50 AM CDT 10:45 PM CDT
Moon 5:27 PM CDT (5/11) 4:11 AM CDT (5/11)
Length of Visible Light 15h 50m
Length of Day
14h 42m
Waxing Gibbous, 89% of the Moon is Illuminated
May 11
Waxing Gibbous
May 14
Full
May 21
Last Quarter
May 28
New
Jun 5
First Quarter

Hourly Weather History & Observations

Time (CDT) Temp. Dew Point Humidity Pressure Visibility Wind Dir Wind Speed Gust Speed Precip Events Conditions
12:15 AM 53.6 °F 48.2 °F 82% 29.83 in 10.0 mi SSE 8.1 mph - N/A   Clear
12:36 AM 53.6 °F 48.2 °F 82% 29.83 in 10.0 mi SE 8.1 mph - N/A   Clear
12:55 AM 53.6 °F 48.2 °F 82% 29.83 in 10.0 mi SSE 5.8 mph - N/A   Clear
1:15 AM 51.8 °F 48.2 °F 88% 29.83 in 10.0 mi SSE 6.9 mph - N/A   Clear
1:36 AM 51.8 °F 48.2 °F 88% 29.83 in 10.0 mi SE 8.1 mph - N/A   Clear
1:55 AM 51.8 °F 48.2 °F 88% 29.83 in 10.0 mi SSE 5.8 mph - N/A   Clear
2:16 AM 48.2 °F 46.4 °F 93% 29.83 in 7.0 mi SE 3.5 mph - N/A   Clear
2:35 AM 48.2 °F 46.4 °F 93% 29.82 in 7.0 mi Calm Calm - N/A   Clear
2:55 AM 50.0 °F 46.4 °F 87% 29.82 in 10.0 mi SE 3.5 mph - N/A   Clear
3:15 AM 48.2 °F 46.4 °F 93% 29.82 in 7.0 mi SE 8.1 mph - N/A   Clear
3:36 AM 48.2 °F 46.4 °F 93% 29.82 in 10.0 mi Calm Calm - N/A   Clear
3:55 AM 48.2 °F 46.4 °F 93% 29.82 in 10.0 mi SSE 4.6 mph - N/A   Clear
4:16 AM 48.2 °F 46.4 °F 93% 29.82 in 7.0 mi Calm Calm - N/A   Clear
4:35 AM 48.2 °F 46.4 °F 93% 29.83 in 7.0 mi Calm Calm - N/A   Clear
4:56 AM 50.0 °F 46.4 °F 87% 29.83 in 7.0 mi Calm Calm - N/A   Clear
5:15 AM 48.2 °F 46.4 °F 93% 29.84 in 7.0 mi SSE 3.5 mph - N/A   Clear
5:36 AM 48.2 °F 46.4 °F 93% 29.85 in 7.0 mi Calm Calm - N/A   Clear
5:55 AM 48.2 °F 44.6 °F 87% 29.86 in 4.0 mi SSE 3.5 mph - N/A   Clear
6:16 AM 46.4 °F 44.6 °F 93% 29.85 in 1.8 mi Calm Calm - N/A   Clear
6:35 AM 48.2 °F 46.4 °F 93% 29.85 in 2.5 mi Calm Calm - N/A   Clear
6:56 AM 46.4 °F 44.6 °F 93% 29.84 in 3.0 mi Calm Calm - N/A   Clear
7:15 AM 48.2 °F 46.4 °F 93% 29.85 in 7.0 mi Calm Calm - N/A   Clear
7:36 AM 51.8 °F 46.4 °F 82% 29.85 in 10.0 mi West 3.5 mph - N/A   Clear
7:55 AM 51.8 °F 46.4 °F 82% 29.87 in 10.0 mi West 4.6 mph - N/A   Clear
8:16 AM 51.8 °F 46.4 °F 82% 29.88 in 10.0 mi West 4.6 mph - N/A   Clear
8:35 AM 53.6 °F 46.4 °F 77% 29.88 in 10.0 mi WNW 4.6 mph - N/A   Clear
8:55 AM 53.6 °F 46.4 °F 77% 29.89 in 10.0 mi West 9.2 mph - N/A   Clear
9:15 AM 53.6 °F 48.2 °F 82% 29.89 in 10.0 mi WNW 5.8 mph - N/A   Clear
9:35 AM 55.4 °F 48.2 °F 77% 29.89 in 10.0 mi WNW 8.1 mph - N/A   Clear
9:56 AM 55.4 °F 48.2 °F 77% 29.90 in 10.0 mi WNW 9.2 mph - N/A   Clear
10:15 AM 55.4 °F 50.0 °F 82% 29.92 in 10.0 mi West 11.5 mph - N/A   Clear
10:35 AM 55.4 °F 51.8 °F 88% 29.91 in 10.0 mi West 10.4 mph - N/A   Clear
10:56 AM 55.4 °F 50.0 °F 82% 29.91 in 10.0 mi West 9.2 mph - N/A   Clear
11:15 AM 55.4 °F 50.0 °F 82% 29.90 in 10.0 mi WNW 6.9 mph - N/A   Clear
11:35 AM 55.4 °F 50.0 °F 82% 29.89 in 10.0 mi WNW 10.4 mph - N/A   Clear
11:56 AM 57.2 °F 51.8 °F 82% 29.87 in 10.0 mi NW 16.1 mph - N/A   Clear
12:15 PM 59.0 °F 51.8 °F 77% 29.89 in 7.0 mi NW 12.7 mph - N/A   Clear
12:35 PM 57.2 °F 51.8 °F 82% 29.89 in 7.0 mi NW 8.1 mph - N/A   Scattered Clouds
12:55 PM 59.0 °F 51.8 °F 77% 29.89 in 7.0 mi NNW 4.6 mph - N/A   Clear
1:15 PM 59.0 °F 51.8 °F 77% 29.88 in 7.0 mi North 6.9 mph - N/A   Clear
1:36 PM 60.8 °F 51.8 °F 72% 29.88 in 7.0 mi North 8.1 mph - N/A   Clear
1:55 PM 60.8 °F 51.8 °F 72% 29.89 in 10.0 mi NNE 4.6 mph - N/A   Clear
2:15 PM 60.8 °F 51.8 °F 72% 29.89 in 10.0 mi NNE 5.8 mph - N/A   Clear
2:36 PM 60.8 °F 51.8 °F 72% 29.89 in 10.0 mi ENE 5.8 mph - N/A   Clear
2:55 PM 60.8 °F 50.0 °F 68% 29.90 in 10.0 mi East 3.5 mph - N/A   Clear
3:15 PM 60.8 °F 51.8 °F 72% 29.89 in 10.0 mi SE 3.5 mph - N/A   Clear
3:36 PM 60.8 °F 51.8 °F 72% 29.88 in 10.0 mi ESE 5.8 mph - N/A   Clear
3:55 PM 60.8 °F 51.8 °F 72% 29.87 in 10.0 mi East 5.8 mph - N/A   Clear
4:15 PM 62.6 °F 51.8 °F 68% 29.87 in 10.0 mi Calm Calm - N/A   Clear
4:36 PM 62.6 °F 51.8 °F 68% 29.86 in 10.0 mi NE 5.8 mph - N/A   Light Drizzle
4:55 PM 62.6 °F 51.8 °F 68% 29.84 in 10.0 mi NE 9.2 mph - N/A   Clear
5:15 PM 62.6 °F 51.8 °F 68% 29.83 in 10.0 mi NNE 10.4 mph - N/A   Clear
5:36 PM 62.6 °F 51.8 °F 68% 29.81 in 10.0 mi NE 13.8 mph - N/A   Clear
5:55 PM 62.6 °F 51.8 °F 68% 29.80 in 10.0 mi NNE 12.7 mph - N/A   Clear
6:15 PM 62.6 °F 51.8 °F 68% 29.80 in 10.0 mi NNE 11.5 mph - N/A   Scattered Clouds
6:36 PM 60.8 °F 51.8 °F 72% 29.79 in 10.0 mi North 9.2 mph - N/A Rain Light Rain
6:55 PM 60.8 °F 51.8 °F 72% 29.80 in 10.0 mi North 10.4 mph - N/A   Mostly Cloudy
7:15 PM 59.0 °F 53.6 °F 82% 29.79 in 10.0 mi NNE 9.2 mph - N/A Rain Light Rain
7:36 PM 59.0 °F 53.6 °F 82% 29.78 in 10.0 mi North 12.7 mph 17.3 mph N/A   Mostly Cloudy
7:55 PM 59.0 °F 53.6 °F 82% 29.81 in 10.0 mi NNW 9.2 mph - N/A   Overcast
8:15 PM 57.2 °F 53.6 °F 88% 29.81 in 10.0 mi North 11.5 mph - N/A Rain Light Rain
8:36 PM 57.2 °F 53.6 °F 88% 29.81 in 10.0 mi North 13.8 mph - N/A Rain Light Rain
8:55 PM 57.2 °F 51.8 °F 82% 29.83 in 10.0 mi NNW 12.7 mph 17.3 mph N/A Rain Rain
9:15 PM 57.2 °F 51.8 °F 82% 29.83 in 7.0 mi North 18.4 mph - N/A Rain Rain
9:35 PM 57.2 °F 51.8 °F 82% 29.83 in 7.0 mi North 16.1 mph 23.0 mph N/A Rain Light Rain
9:55 PM 57.2 °F 51.8 °F 82% 29.85 in 10.0 mi North 15.0 mph 20.7 mph N/A Rain Heavy Rain
10:15 PM 55.4 °F 51.8 °F 88% 29.83 in 7.0 mi North 18.4 mph - N/A Rain Heavy Rain
10:35 PM 55.4 °F 51.8 °F 88% 29.84 in 5.0 mi North 16.1 mph - N/A Rain , Thunderstorm Heavy Thunderstorms and Rain
11:16 PM 55.4 °F 51.8 °F 88% 29.79 in 5.0 mi NE 21.9 mph 27.6 mph N/A Rain Light Rain
11:35 PM 55.4 °F 51.8 °F 88% 29.77 in 7.0 mi NE 23.0 mph 28.8 mph N/A Rain Light Rain
11:56 PM 55.4 °F 51.8 °F 88% 29.76 in 10.0 mi NNE 21.9 mph 27.6 mph N/A Rain Light Rain